timestamp,surface_pressure_avg,surface_temp_avg,battery_voltage,lat,long
2024-03-03 00:09:00+00:00,231.6031,0.25,11.61,47.84626,-54.09684
2024-03-03 00:19:00+00:00,234.9214,0.3,11.61,47.84626,-54.09684
2024-03-03 00:29:00+00:00,235.6181,0.33,11.61,47.84626,-54.09684
2024-03-03 00:39:00+00:00,236.8764,0.37,11.61,47.84626,-54.09684
2024-03-03 00:49:00+00:00,242.1881,0.43,11.61,47.84626,-54.09684
2024-03-03 00:59:00+00:00,245.4531,0.5,11.61,47.84626,-54.09684
2024-03-03 01:09:00+00:00,248.0731,0.5,11.61,47.84626,-54.09684
2024-03-03 01:19:00+00:00,255.8364,0.5,11.61,47.84626,-54.09684
2024-03-03 01:29:00+00:00,264.2997,0.5,11.61,47.84626,-54.09684
2024-03-03 01:39:00+00:00,268.1664,0.5,11.61,47.84626,-54.09684
2024-03-03 01:49:00+00:00,273.7513,0.42,11.61,47.84626,-54.09684
2024-03-03 01:59:00+00:00,281.3447,0.4,11.61,47.84626,-54.09684
2024-03-03 02:09:00+00:00,286.243,0.4,11.61,47.84626,-54.09684
2024-03-03 02:19:00+00:00,288.2997,0.4,11.53,47.84626,-54.09684
2024-03-03 02:29:00+00:00,293.4497,0.4,11.53,47.84626,-54.09684
2024-03-03 02:39:00+00:00,300.9163,0.49,11.53,47.84626,-54.09684
2024-03-03 02:49:00+00:00,304.973,0.5,11.53,47.84626,-54.09684
2024-03-03 02:59:00+00:00,303.9397,0.58,11.53,47.84626,-54.09684
2024-03-03 03:09:00+00:00,305.1413,0.61,11.53,47.84626,-54.09684
2024-03-03 03:19:00+00:00,310.6981,0.66,11.53,47.84626,-54.09684
2024-03-03 03:29:00+00:00,313.9497,0.6,11.53,47.84626,-54.09684
2024-03-03 03:39:00+00:00,314.1363,0.66,11.53,47.84626,-54.09684
2024-03-03 03:49:00+00:00,316.4564,0.7,11.53,47.84626,-54.09684
2024-03-03 03:59:00+00:00,319.4713,0.7,11.53,47.84626,-54.09684
2024-03-03 04:09:00+00:00,318.5597,0.7,11.53,47.84626,-54.09684
2024-03-03 04:19:00+00:00,317.7562,0.6,11.53,47.84626,-54.09684
2024-03-03 04:29:00+00:00,316.508,0.65,11.53,47.84626,-54.09684
2024-03-03 04:39:00+00:00,317.043,0.66,11.53,47.84626,-54.09684
2024-03-03 04:49:00+00:00,316.4913,0.68,11.53,47.84626,-54.09684
2024-03-03 04:59:00+00:00,317.1413,0.6,11.53,47.84626,-54.09684
2024-03-03 05:09:00+00:00,318.2997,0.54,11.53,47.84626,-54.09684
2024-03-03 05:19:00+00:00,317.173,0.57,11.53,47.84626,-54.09684
2024-03-03 05:29:00+00:00,314.6146,0.58,11.53,47.84626,-54.09684
2024-03-03 05:39:00+00:00,315.6797,0.46,11.53,47.84626,-54.09684
2024-03-03 05:49:00+00:00,315.6063,0.54,11.53,47.84626,-54.09684
2024-03-03 05:59:00+00:00,312.3347,0.5,11.53,47.84626,-54.09684
2024-03-03 06:09:00+00:00,309.3196,0.5,11.53,47.84626,-54.09684
2024-03-03 06:19:00+00:00,307.3397,0.5,11.53,47.84626,-54.09684
2024-03-03 06:29:00+00:00,302.588,0.3,11.53,47.84626,-54.09684
2024-03-03 06:39:00+00:00,296.9064,0.2,11.53,47.84626,-54.09684
2024-03-03 06:49:00+00:00,296.5147,0.2,11.53,47.84626,-54.09684
2024-03-03 06:59:00+00:00,291.6813,0.2,11.53,47.84626,-54.09684
2024-03-03 07:09:00+00:00,282.823,0.2,11.53,47.84626,-54.09684
2024-03-03 07:19:00+00:00,279.4647,0.25,11.53,47.84626,-54.09684
2024-03-03 07:29:00+00:00,277.3464,0.28,11.53,47.84626,-54.09684
2024-03-03 07:39:00+00:00,268.7081,0.24,11.53,47.84626,-54.09684
2024-03-03 07:49:00+00:00,261.1414,0.3,11.53,47.84626,-54.09684
2024-03-03 07:59:00+00:00,261.0364,0.38,11.53,47.84626,-54.09684
2024-03-03 08:09:00+00:00,254.3514,0.32,11.53,47.84626,-54.09684
2024-03-03 08:19:00+00:00,244.0314,0.3,11.53,47.84626,-54.09684
2024-03-03 08:29:00+00:00,241.6798,0.3,11.53,47.84626,-54.09684
2024-03-03 08:39:00+00:00,240.3648,0.3,11.53,47.84626,-54.09684
2024-03-03 08:49:00+00:00,229.7714,0.3,11.53,47.84626,-54.09684
2024-03-03 08:59:00+00:00,223.0965,0.29,11.53,47.84626,-54.09684
2024-03-03 09:09:00+00:00,224.1214,0.3,11.53,47.84626,-54.09684
2024-03-03 09:19:00+00:00,221.593,0.3,11.53,47.84626,-54.09684
2024-03-03 09:29:00+00:00,215.1748,0.29,11.53,47.84626,-54.09684
2024-03-03 09:39:00+00:00,212.7931,0.3,11.53,47.84626,-54.09684
2024-03-03 09:49:00+00:00,215.3781,0.2,11.53,47.84626,-54.09684
2024-03-03 09:59:00+00:00,213.1131,0.1,11.53,47.84626,-54.09684
2024-03-03 10:09:00+00:00,210.6115,-0.1,11.53,47.84626,-54.09684
2024-03-03 10:19:00+00:00,210.2131,-0.3,11.53,47.84626,-54.09684
2024-03-03 10:29:00+00:00,208.3931,-0.32,11.53,47.84626,-54.09684
2024-03-03 10:39:00+00:00,205.8331,-0.4,11.53,47.84626,-54.09684
2024-03-03 10:49:00+00:00,208.4681,-0.32,11.53,47.84626,-54.09684
2024-03-03 10:59:00+00:00,210.8781,-0.3,11.53,47.84626,-54.09684
2024-03-03 11:09:00+00:00,212.1448,-0.24,11.53,47.84626,-54.09684
2024-03-03 11:19:00+00:00,216.2681,-0.2,11.53,47.84626,-54.09684
2024-03-03 11:29:00+00:00,220.6797,-0.2,11.53,47.84626,-54.09684
2024-03-03 11:39:00+00:00,220.5464,-0.2,11.53,47.84626,-54.09684
2024-03-03 11:49:00+00:00,219.9031,-0.1,11.53,47.84626,-54.09684
2024-03-03 11:59:00+00:00,223.9565,-0.1,11.53,47.84626,-54.09684
2024-03-03 12:09:00+00:00,224.8382,-0.1,11.53,47.84626,-54.09684
2024-03-03 12:19:00+00:00,224.0947,-0.1,11.53,47.84626,-54.09684
2024-03-03 12:29:00+00:00,225.1398,-0.1,11.53,47.84626,-54.09684
2024-03-03 12:39:00+00:00,230.6631,-0.1,11.53,47.84626,-54.09684
2024-03-03 12:49:00+00:00,231.4481,-0.1,11.53,47.84626,-54.09684
2024-03-03 12:59:00+00:00,230.3498,-0.1,11.53,47.84626,-54.09684
2024-03-03 13:09:00+00:00,232.8197,-0.1,11.53,47.84626,-54.09684
2024-03-03 13:19:00+00:00,236.7831,-0.1,11.53,47.84626,-54.09684
2024-03-03 13:29:00+00:00,239.0747,-0.1,11.53,47.84626,-54.09684
2024-03-03 13:39:00+00:00,238.1681,-0.1,11.53,47.84626,-54.09684
2024-03-03 13:49:00+00:00,239.5814,-0.1,11.53,47.84626,-54.09684
2024-03-03 13:59:00+00:00,243.313,-0.1,11.53,47.84626,-54.09684
2024-03-03 14:09:00+00:00,250.0947,-0.04,11.53,47.84626,-54.09684
2024-03-03 14:19:00+00:00,255.103,0.0,11.61,47.84626,-54.09684
2024-03-03 14:29:00+00:00,259.2731,0.0,11.61,47.84626,-54.09684
2024-03-03 14:39:00+00:00,261.2464,0.1,11.61,47.84626,-54.09684
2024-03-03 14:49:00+00:00,264.0848,0.1,11.61,47.84626,-54.09684
2024-03-03 14:59:00+00:00,264.993,0.1,11.61,47.84626,-54.09684
2024-03-03 15:09:00+00:00,268.3664,0.1,11.61,47.84626,-54.09684
2024-03-03 15:19:00+00:00,272.123,0.1,11.53,47.84626,-54.09684
2024-03-03 15:29:00+00:00,274.5064,0.1,11.53,47.84626,-54.09684
2024-03-03 15:39:00+00:00,272.678,0.1,11.53,47.84626,-54.09684
2024-03-03 15:49:00+00:00,274.2814,0.1,11.53,47.84626,-54.09684
2024-03-03 15:59:00+00:00,277.7697,0.1,11.53,47.84626,-54.09684
2024-03-03 16:09:00+00:00,276.8597,0.1,11.53,47.84626,-54.09684
2024-03-03 16:19:00+00:00,273.2797,0.1,11.61,47.84626,-54.09684
2024-03-03 16:29:00+00:00,275.6548,0.1,11.61,47.84626,-54.09684
2024-03-03 16:39:00+00:00,277.3664,0.18,11.61,47.84626,-54.09684
2024-03-03 16:49:00+00:00,272.7747,0.1,11.61,47.84626,-54.09684
2024-03-03 16:59:00+00:00,273.478,0.1,11.61,47.84626,-54.09684
2024-03-03 17:09:00+00:00,276.0164,0.1,11.61,47.84626,-54.09684
2024-03-03 17:19:00+00:00,273.2363,0.08,11.53,47.84626,-54.09684
2024-03-03 17:29:00+00:00,269.7065,0.0,11.53,47.84626,-54.09684
2024-03-03 17:39:00+00:00,278.4431,0.03,11.53,47.84626,-54.09684
2024-03-03 17:49:00+00:00,280.9397,0.09,11.53,47.84626,-54.09684
2024-03-03 17:59:00+00:00,274.7114,0.0,11.53,47.84626,-54.09684
2024-03-03 18:09:00+00:00,272.5997,0.12,11.53,47.84626,-54.09684
2024-03-03 18:19:00+00:00,277.2581,0.2,11.61,47.84626,-54.09684
2024-03-03 18:29:00+00:00,273.7981,0.2,11.61,47.84626,-54.09684
2024-03-03 18:39:00+00:00,265.6464,0.2,11.61,47.84626,-54.09684
2024-03-03 18:49:00+00:00,264.4764,0.14,11.61,47.84626,-54.09684
2024-03-03 18:59:00+00:00,266.2831,0.14,11.61,47.84626,-54.09684
2024-03-03 19:09:00+00:00,257.2564,0.1,11.61,47.84626,-54.09684
2024-03-03 19:19:00+00:00,247.0048,0.1,11.53,47.84626,-54.09684
2024-03-03 19:29:00+00:00,244.5314,0.15,11.53,47.84626,-54.09684
2024-03-03 19:39:00+00:00,239.9364,0.19,11.53,47.84626,-54.09684
2024-03-03 19:49:00+00:00,233.4114,0.1,11.53,47.84626,-54.09684
2024-03-03 19:59:00+00:00,230.8997,0.1,11.53,47.84626,-54.09684
2024-03-03 20:09:00+00:00,227.7014,0.0,11.53,47.84626,-54.09684
2024-03-03 20:19:00+00:00,222.5481,-0.0,11.53,47.84626,-54.09684
2024-03-03 20:29:00+00:00,219.0314,-0.01,11.53,47.84626,-54.09684
2024-03-03 20:39:00+00:00,214.0031,-0.0,11.53,47.84626,-54.09684
2024-03-03 20:49:00+00:00,210.2481,0.0,11.53,47.84626,-54.09684
2024-03-03 20:59:00+00:00,208.9398,-0.0,11.53,47.84626,-54.09684
2024-03-03 21:09:00+00:00,202.4264,-0.01,11.53,47.84626,-54.09684
2024-03-03 21:19:00+00:00,196.7148,0.0,11.53,47.84626,-54.09684
2024-03-03 21:29:00+00:00,198.0981,0.0,11.53,47.84626,-54.09684
2024-03-03 21:39:00+00:00,197.4615,0.0,11.53,47.84626,-54.09684
2024-03-03 21:49:00+00:00,193.0148,0.03,11.53,47.84626,-54.09684
2024-03-03 21:59:00+00:00,194.7798,0.05,11.53,47.84626,-54.09684
2024-03-03 22:09:00+00:00,198.7065,0.06,11.53,47.84626,-54.09684
2024-03-03 22:19:00+00:00,198.7048,0.06,11.53,47.84626,-54.09684
2024-03-03 22:29:00+00:00,199.0014,0.1,11.53,47.84626,-54.09684
2024-03-03 22:39:00+00:00,200.7032,0.1,11.53,47.84626,-54.09684
2024-03-03 22:49:00+00:00,201.7231,0.09,11.53,47.84626,-54.09684
2024-03-03 22:59:00+00:00,204.0515,0.09,11.53,47.84626,-54.09684
2024-03-03 23:09:00+00:00,206.5431,0.09,11.53,47.84626,-54.09684
